Flag for Germany Weather past 2 weeks in Neumünster, Schleswig-Holstein, Germany

Now
45 °F

Overcast.


Feels Like: 43 °F
Forecast: 41 / 59 °F
Wind: 5 mph from Northwest

Location: Itzehoe

Current Time: Apr 22, 2015 at 5:58:44 AM

Latest Report: Apr 22, 2015 at 4:00 AM


Visibility: 14 mi

Pressure: 30.29 "Hg

Humidity: 82%

Dew point: 40 °F

Location of NeumünsterLocation

Historic Weather in Neumünster — Graph

°F

Neumünster temperature yesterday

Maximum temperature yesterday: 58 °F (at 12:00 PM)
Minimum temperature yesterday: 39 °F (at 4:00 AM)
Average temperature yesterday: 48 °F

Past Weeks' High & Low Weather Summary

 TemperatureHumidityPressure
High65 °F (Apr 10, 6:00 PM)100% (Apr 9, 3:00 AM)30.55 "Hg (Apr 9, 3:00 AM)
Low30 °F (Apr 7, 4:00 AM)33% (Apr 9, 6:00 PM)29.87 "Hg (Apr 15, 4:00 PM)
Average47 °F75%30.22 "Hg
* Reported Apr 7 4:00 AM — Apr 22 4:00 AM, Neumünster, Weather by CustomWeather, © 2015

Note: Actual official high and low records may vary slightly from our data, if they occured in-between our weather recording intervals... More about our weather records

Advertising

Neumünster weather history for previous 24 hours

 ConditionsComfort  
Time TempWeatherWind HumidityBarometerVisibility
4:00 AM
Wed, Apr 22
45 °FOvercast.5 mph82%30.29 "Hg14 mi
3:00 AM45 °FOvercast.5 mph83%30.31 "Hg15 mi
1:00 AM46 °FOvercast.6 mph81%30.36 "Hg15 mi
12:00 AM46 °FOvercast.6 mph80%30.37 "Hg17 mi
10:00 PM
Tue, Apr 21
44 °FPassing clouds.5 mph86%30.38 "Hg13 mi
9:00 PM46 °FOvercast.5 mph80%30.38 "Hg16 mi
8:00 PM46 °FScattered clouds.7 mph79%30.37 "Hg17 mi
7:00 PM47 °FScattered clouds.7 mph75%30.37 "Hg11 mi
6:00 PM48 °FPartly sunny.7 mph75%30.38 "Hg11 mi
4:00 PM55 °FSunny.7 mph65%30.37 "Hg9 mi
3:00 PM57 °FSunny.7 mph58%30.37 "Hg11 mi
1:00 PM58 °FSunny.7 mph56%30.37 "Hg9 mi
12:00 PM58 °FSunny.7 mph47%30.37 "Hg16 mi
10:00 AM54 °FPassing clouds.6 mph55%30.36 "Hg19 mi
9:00 AM52 °FSunny.3 mph60%30.37 "Hg28 mi
7:00 AM39 °FSunny.2 mph90%30.36 "Hg14 mi
6:00 AM39 °FClear.1 mph97%30.36 "Hg8 mi
Weather by CustomWeather, © 2015

See weather overviewHow to use our weather pages